Portage, MI

9:23 PM EDT on August 29, 2016 (GMT -0400)
Kalamazoo-Battle Creek International

Weather History for KAZO - June, 2011

Change the Weather History Date:

Wednesday, June 29, 2011

  Actual Average Record
Temperature  
Mean Temperature 66 °F 72 °F  
Max Temperature 80 °F 83 °F 98 °F (1971)
Min Temperature 52 °F 61 °F 49 °F (2016)
Degree Days  
Heating Degree Days 0 0  
Month to date heating degree days 47  
Since 1 June heating degree days 47  
Since 1 July heating degree days 6415  
Cooling Degree Days 1 7  
Month to date cooling degree days 138  
Year to date cooling degree days 179  
Since 1 June cooling degree days 138  
Growing Degree Days 16 (Base 50)    
Moisture  
Dew Point 53 °F    
Average Humidity 65    
Maximum Humidity 100    
Minimum Humidity 39    
Precipitation  
Precipitation 0.00 in 0.09 in 0.85 in (1948)
Month to date precipitation 1.49 3.49  
Year to date precipitation 15.93  
Sea Level Pressure  
Sea Level Pressure 30.09 in    
Wind  
Wind Speed 4 mph (NW)    
Max Wind Speed 13 mph    
Max Gust Speed 24 mph    
Visibility 10 miles    
Events      
T = Trace of Precipitation, MM = Missing Value Source: NWS Daily Summary

Daily Weather History Graph

Daily Weather History Graph

Search for Another Location

Airport or City:

Trip Planner

Search our weather history database for the weather conditions in past years. The results will help you decide how hot, cold, wet, or windy it might be!

Date:

Astronomy

Jun. 29, 2011 Rise Set
Actual Time 6:08 AM EDT 9:22 PM EDT
Civil Twilight 5:33 AM EDT 9:57 PM EDT
Nautical Twilight 4:49 AM EDT 10:41 PM EDT
Astronomical Twilight 3:55 AM EDT 11:35 PM EDT
Moon 4:27 AM EDT (6/29) 8:04 PM EDT (6/29)
Length of Visible Light 16h 23m
Length of Day
15h 14m
Waning Crescent, 3% of the Moon is Illuminated
Jun 29
Waning Crescent
Jul 1
New
Jul 8
First Quarter
Jul 15
Full
Jul 23
Last Quarter

Hourly Weather History & Observations

Time (EDT) Temp. Heat Index Dew Point Humidity Pressure Visibility Wind Dir Wind Speed Gust Speed Precip Events Conditions
12:53 AM 60.1 °F - 54.0 °F 80% 30.04 in 10.0 mi Calm Calm - N/A   Clear
1:53 AM 57.9 °F - 53.1 °F 84% 30.04 in 10.0 mi Calm Calm - N/A   Clear
2:53 AM 57.0 °F - 53.1 °F 87% 30.05 in 10.0 mi NNW 3.5 mph - N/A   Clear
3:53 AM 57.0 °F - 53.1 °F 87% 30.06 in 10.0 mi NNE 3.5 mph - N/A   Clear
4:53 AM 55.4 °F - 51.8 °F 88% 30.09 in 10.0 mi Calm Calm - N/A   Clear
5:53 AM 53.1 °F - 51.1 °F 93% 30.11 in 9.0 mi Calm Calm - N/A   Clear
6:04 AM 53.6 °F - 51.8 °F 94% 30.11 in 1.0 mi Calm Calm - N/A   Clear
6:11 AM 51.8 °F - 51.8 °F 100% 30.11 in 9.0 mi Calm Calm - N/A   Clear
6:53 AM 54.0 °F - 52.0 °F 93% 30.13 in 9.0 mi Calm Calm - N/A   Clear
7:53 AM 62.1 °F - 55.9 °F 80% 30.13 in 10.0 mi NNW 3.5 mph - N/A   Clear
8:53 AM 66.0 °F - 53.1 °F 63% 30.13 in 10.0 mi North 5.8 mph - N/A   Clear
9:53 AM 70.0 °F - 53.1 °F 55% 30.14 in 10.0 mi North 4.6 mph - N/A   Clear
10:53 AM 73.0 °F - 52.0 °F 48% 30.14 in 10.0 mi NNW 5.8 mph - N/A   Clear
11:53 AM 75.0 °F - 52.0 °F 44% 30.15 in 10.0 mi Variable 4.6 mph - N/A   Clear
12:53 PM 77.0 °F - 54.0 °F 45% 30.14 in 10.0 mi West 10.4 mph - N/A   Partly Cloudy
1:53 PM 78.1 °F - 53.1 °F 42% 30.12 in 10.0 mi WNW 8.1 mph - N/A   Mostly Cloudy
2:53 PM 78.1 °F - 53.1 °F 42% 30.10 in 10.0 mi Variable 3.5 mph 16.1 mph N/A   Scattered Clouds
3:53 PM 80.1 °F 80.0 °F 54.0 °F 40% 30.09 in 10.0 mi Variable 3.5 mph - N/A   Scattered Clouds
4:53 PM 80.1 °F 79.9 °F 53.1 °F 39% 30.08 in 10.0 mi WNW 5.8 mph - N/A   Clear
5:53 PM 80.1 °F 79.9 °F 53.1 °F 39% 30.08 in 10.0 mi Variable 5.8 mph - N/A   Clear
6:53 PM 79.0 °F - 54.0 °F 42% 30.07 in 10.0 mi NNW 6.9 mph - N/A   Clear
7:53 PM 75.9 °F - 53.1 °F 45% 30.07 in 10.0 mi NW 8.1 mph - N/A   Clear
8:53 PM 73.0 °F - 53.1 °F 49% 30.06 in 10.0 mi NW 6.9 mph - N/A   Clear
9:53 PM 68.0 °F - 54.0 °F 61% 30.06 in 10.0 mi NW 4.6 mph - N/A   Clear
10:53 PM 64.0 °F - 54.0 °F 70% 30.07 in 10.0 mi Calm Calm - N/A   Clear
11:53 PM 62.6 °F - 53.6 °F 72% 30.07 in 10.0 mi Calm Calm - N/A   Clear